Time,TemperatureF,DewpointF,PressureIn,WindDirection,WindDirectionDegrees,WindSpeedMPH,WindSpeedGustMPH,Humidity,HourlyPrecipIn,Conditions,Clouds,dailyrainin,SoftwareType,DateUTC
2013-02-17 00:09:00,39.3,29.0,29.72,WNW,300,3.0,14.0,68,0.00,,,0.00,weatherlink.com 1.10,2013-02-17 07:09:00,
2013-02-17 00:24:00,39.3,29.0,29.71,WNW,302,0.0,8.0,66,0.00,,,0.00,weatherlink.com 1.10,2013-02-17 07:24:00,
2013-02-17 00:39:00,38.7,29.0,29.71,SSW,202,0.0,0.0,67,0.00,,,0.00,weatherlink.com 1.10,2013-02-17 07:39:00,
2013-02-17 00:54:00,37.7,28.0,29.71,SSE,155,5.0,8.0,68,0.00,,,0.00,weatherlink.com 1.10,2013-02-17 07:54:00,
2013-02-17 01:09:00,38.1,27.0,29.72,WSW,253,1.0,8.0,64,0.00,,,0.00,weatherlink.com 1.10,2013-02-17 08:09:00,
2013-02-17 01:24:00,38.8,25.0,29.72,WSW,246,7.0,9.0,59,0.00,,,0.00,weatherlink.com 1.10,2013-02-17 08:24:00,
2013-02-17 01:39:00,38.3,27.0,29.71,West,262,3.0,7.0,63,0.00,,,0.00,weatherlink.com 1.10,2013-02-17 08:39:00,
2013-02-17 01:54:00,38.9,25.0,29.72,West,266,7.0,9.0,59,0.00,,,0.00,weatherlink.com 1.10,2013-02-17 08:54:00,
2013-02-17 02:09:00,38.6,26.0,29.73,WSW,249,0.0,2.0,60,0.00,,,0.00,weatherlink.com 1.10,2013-02-17 09:09:00,
2013-02-17 02:24:00,38.1,26.0,29.73,WSW,255,0.0,4.0,61,0.00,,,0.00,weatherlink.com 1.10,2013-02-17 09:24:00,
2013-02-17 02:39:00,37.7,26.0,29.73,South,180,0.0,4.0,64,0.00,,,0.00,weatherlink.com 1.10,2013-02-17 09:39:00,
2013-02-17 02:54:00,37.4,27.0,29.74,SW,233,1.0,6.0,65,0.00,,,0.00,weatherlink.com 1.10,2013-02-17 09:54:00,
2013-02-17 03:09:00,37.6,26.0,29.74,WSW,238,4.0,6.0,64,0.00,,,0.00,weatherlink.com 1.10,2013-02-17 10:09:00,
2013-02-17 03:24:00,37.4,25.0,29.72,WSW,246,0.0,5.0,62,0.00,,,0.00,weatherlink.com 1.10,2013-02-17 10:24:00,
2013-02-17 03:39:00,36.5,25.0,29.71,WSW,252,0.0,2.0,64,0.00,,,0.00,weatherlink.com 1.10,2013-02-17 10:39:00,
2013-02-17 03:54:00,36.1,24.0,29.72,SE,129,0.0,1.0,63,0.00,,,0.00,weatherlink.com 1.10,2013-02-17 10:54:00,
2013-02-17 04:09:00,36.7,21.0,29.72,ENE,66,0.0,7.0,54,0.00,,,0.00,weatherlink.com 1.10,2013-02-17 11:09:00,
2013-02-17 04:24:00,36.3,21.0,29.70,WSW,245,2.0,3.0,55,0.00,,,0.00,weatherlink.com 1.10,2013-02-17 11:24:00,
2013-02-17 04:39:00,36.1,20.0,29.70,SSE,158,0.0,11.0,53,0.00,,,0.00,weatherlink.com 1.10,2013-02-17 11:39:00,
2013-02-17 04:54:00,35.1,21.0,29.71,WSW,241,5.0,13.0,56,0.00,,,0.00,weatherlink.com 1.10,2013-02-17 11:54:00,
2013-02-17 05:09:00,34.6,21.0,29.71,SSE,150,1.0,6.0,57,0.00,,,0.00,weatherlink.com 1.10,2013-02-17 12:09:00,
2013-02-17 05:24:00,34.1,21.0,29.70,SW,236,0.0,8.0,58,0.00,,,0.00,weatherlink.com 1.10,2013-02-17 12:24:00,
2013-02-17 05:39:00,35.0,20.0,29.73,NNE,24,0.0,6.0,54,0.00,,,0.00,weatherlink.com 1.10,2013-02-17 12:39:00,
2013-02-17 05:54:00,35.2,20.0,29.72,SSE,168,2.0,3.0,54,0.00,,,0.00,weatherlink.com 1.10,2013-02-17 12:54:00,
2013-02-17 06:09:00,34.4,20.0,29.74,NE,44,0.0,0.0,55,0.00,,,0.00,weatherlink.com 1.10,2013-02-17 13:09:00,
2013-02-17 06:25:00,33.9,20.0,29.75,ENE,78,0.0,1.0,58,0.00,,,0.00,weatherlink.com 1.10,2013-02-17 13:25:00,
2013-02-17 06:40:00,33.5,20.0,29.76,WNW,298,0.0,0.0,59,0.00,,,0.00,weatherlink.com 1.10,2013-02-17 13:40:00,
2013-02-17 06:55:00,33.3,21.0,29.76,WSW,257,0.0,2.0,62,0.00,,,0.00,weatherlink.com 1.10,2013-02-17 13:55:00,
2013-02-17 07:10:00,33.2,21.0,29.76,WSW,256,0.0,0.0,61,0.00,,,0.00,weatherlink.com 1.10,2013-02-17 14:10:00,
2013-02-17 07:25:00,33.3,21.0,29.77,WSW,248,0.0,0.0,61,0.00,,,0.00,weatherlink.com 1.10,2013-02-17 14:25:00,
2013-02-17 07:40:00,33.4,21.0,29.77,SE,145,0.0,2.0,60,0.00,,,0.00,weatherlink.com 1.10,2013-02-17 14:40:00,
2013-02-17 07:55:00,33.6,21.0,29.77,SE,144,2.0,5.0,61,0.00,,,0.00,weatherlink.com 1.10,2013-02-17 14:55:00,
2013-02-17 08:10:00,33.7,21.0,29.78,South,191,1.0,5.0,60,0.00,,,0.00,weatherlink.com 1.10,2013-02-17 15:10:00,
2013-02-17 08:25:00,34.8,21.0,29.78,South,170,0.0,2.0,57,0.00,,,0.00,weatherlink.com 1.10,2013-02-17 15:25:00,
2013-02-17 08:40:00,35.0,21.0,29.79,West,265,0.0,2.0,58,0.00,,,0.00,weatherlink.com 1.10,2013-02-17 15:40:00,
2013-02-17 08:55:00,34.8,22.0,29.80,NNW,343,1.0,4.0,61,0.00,,,0.00,weatherlink.com 1.10,2013-02-17 15:55:00,
2013-02-17 09:10:00,35.1,23.0,29.80,NNW,345,0.0,0.0,61,0.00,,,0.00,weatherlink.com 1.10,2013-02-17 16:10:00,
2013-02-17 09:25:00,35.6,23.0,29.81,NNW,345,0.0,0.0,60,0.00,,,0.00,weatherlink.com 1.10,2013-02-17 16:25:00,
2013-02-17 09:40:00,35.8,23.0,29.81,NNW,346,0.0,0.0,59,0.00,,,0.00,weatherlink.com 1.10,2013-02-17 16:40:00,
2013-02-17 09:55:00,35.9,23.0,29.82,WNW,292,2.0,3.0,61,0.00,,,0.00,weatherlink.com 1.10,2013-02-17 16:55:00,
2013-02-17 10:10:00,36.1,23.0,29.82,NW,316,3.0,5.0,59,0.00,,,0.00,weatherlink.com 1.10,2013-02-17 17:10:00,
2013-02-17 10:25:00,36.1,25.0,29.83,NE,49,1.0,13.0,65,0.00,,,0.00,weatherlink.com 1.10,2013-02-17 17:25:00,
2013-02-17 10:40:00,34.9,26.0,29.84,NNE,22,1.0,7.0,71,0.00,,,0.00,weatherlink.com 1.10,2013-02-17 17:40:00,
2013-02-17 10:55:00,35.4,26.0,29.84,North,9,4.0,6.0,68,0.00,,,0.00,weatherlink.com 1.10,2013-02-17 17:55:00,
2013-02-17 11:10:00,35.8,26.0,29.84,NE,46,0.0,5.0,67,0.00,,,0.00,weatherlink.com 1.10,2013-02-17 18:10:00,
2013-02-17 11:25:00,36.2,26.0,29.85,NE,54,1.0,5.0,66,0.00,,,0.00,weatherlink.com 1.10,2013-02-17 18:25:00,
2013-02-17 11:40:00,36.4,26.0,29.85,North,5,1.0,5.0,65,0.00,,,0.00,weatherlink.com 1.10,2013-02-17 18:40:00,
2013-02-17 11:55:00,37.5,26.0,29.85,NE,38,4.0,5.0,63,0.00,,,0.00,weatherlink.com 1.10,2013-02-17 18:55:00,
2013-02-17 12:10:00,39.1,24.0,29.85,NE,51,3.0,4.0,56,0.00,,,0.00,weatherlink.com 1.10,2013-02-17 19:10:00,
2013-02-17 12:25:00,39.4,22.0,29.85,North,5,0.0,5.0,51,0.00,,,0.00,weatherlink.com 1.10,2013-02-17 19:25:00,
2013-02-17 12:40:00,38.6,23.0,29.85,North,355,3.0,4.0,53,0.00,,,0.00,weatherlink.com 1.10,2013-02-17 19:40:00,
2013-02-17 12:55:00,37.9,24.0,29.85,NNW,347,0.0,6.0,58,0.00,,,0.00,weatherlink.com 1.10,2013-02-17 19:55:00,
2013-02-17 13:10:00,37.2,25.0,29.86,NNW,344,0.0,5.0,62,0.00,,,0.00,weatherlink.com 1.10,2013-02-17 20:10:00,
2013-02-17 13:25:00,37.5,26.0,29.86,NE,50,1.0,7.0,63,0.00,,,0.00,weatherlink.com 1.10,2013-02-17 20:25:00,
2013-02-17 13:40:00,37.5,26.0,29.86,NW,309,7.0,8.0,64,0.00,,,0.00,weatherlink.com 1.10,2013-02-17 20:40:00,
2013-02-17 13:55:00,35.1,28.0,29.86,NW,309,5.0,12.0,74,0.00,,,0.00,weatherlink.com 1.10,2013-02-17 20:55:00,
2013-02-17 14:10:00,35.7,27.0,29.86,NW,322,1.0,3.0,71,0.00,,,0.00,weatherlink.com 1.10,2013-02-17 21:10:00,
2013-02-17 14:25:00,35.1,28.0,29.87,NNW,331,13.0,15.0,76,0.00,,,0.00,weatherlink.com 1.10,2013-02-17 21:25:00,
2013-02-17 14:40:00,32.1,29.0,29.88,NNW,327,3.0,10.0,88,0.00,,,0.00,weatherlink.com 1.10,2013-02-17 21:40:00,
2013-02-17 14:55:00,32.4,30.0,29.88,East,83,0.0,1.0,90,0.00,,,0.00,weatherlink.com 1.10,2013-02-17 21:55:00,
2013-02-17 15:10:00,32.9,30.0,29.89,ESE,108,0.0,0.0,89,0.00,,,0.00,weatherlink.com 1.10,2013-02-17 22:10:00,
2013-02-17 15:25:00,32.8,30.0,29.90,WNW,291,3.0,10.0,88,0.00,,,0.00,weatherlink.com 1.10,2013-02-17 22:25:00,
2013-02-17 15:40:00,31.7,29.0,29.91,NNW,342,6.0,10.0,90,0.00,,,0.00,weatherlink.com 1.10,2013-02-17 22:40:00,
2013-02-17 15:56:00,31.3,29.0,29.92,NNW,327,0.0,6.0,91,0.00,,,0.00,weatherlink.com 1.10,2013-02-17 22:56:00,
2013-02-17 16:11:00,31.2,29.0,29.93,NNW,327,0.0,4.0,91,0.00,,,0.00,weatherlink.com 1.10,2013-02-17 23:11:00,
2013-02-17 16:26:00,30.8,29.0,29.94,WNW,303,2.0,6.0,92,0.00,,,0.00,weatherlink.com 1.10,2013-02-17 23:26:00,
2013-02-17 16:41:00,30.8,29.0,29.95,WNW,293,0.0,4.0,92,0.00,,,0.00,weatherlink.com 1.10,2013-02-17 23:41:00,
2013-02-17 16:56:00,30.5,29.0,29.96,WNW,284,4.0,6.0,92,0.00,,,0.00,weatherlink.com 1.10,2013-02-17 23:56:00,
2013-02-17 17:11:00,30.4,29.0,29.96,WNW,302,0.0,4.0,93,0.00,,,0.00,weatherlink.com 1.10,2013-02-18 00:11:00,
2013-02-17 17:26:00,30.2,29.0,29.97,WNW,292,4.0,4.0,93,0.00,,,0.00,weatherlink.com 1.10,2013-02-18 00:26:00,
2013-02-17 17:41:00,29.9,28.0,29.98,WNW,298,6.0,7.0,92,0.00,,,0.00,weatherlink.com 1.10,2013-02-18 00:41:00,
2013-02-17 17:56:00,29.7,28.0,29.98,WNW,293,3.0,7.0,92,0.00,,,0.00,weatherlink.com 1.10,2013-02-18 00:56:00,
2013-02-17 18:11:00,29.4,27.0,29.99,NW,304,0.0,4.0,92,0.00,,,0.00,weatherlink.com 1.10,2013-02-18 01:11:00,
2013-02-17 18:26:00,29.3,28.0,30.00,NW,304,0.0,0.0,93,0.00,,,0.00,weatherlink.com 1.10,2013-02-18 01:26:00,
2013-02-17 18:41:00,29.3,28.0,30.00,NW,304,0.0,0.0,93,0.00,,,0.00,weatherlink.com 1.10,2013-02-18 01:41:00,
2013-02-17 18:56:00,29.3,28.0,30.01,NW,306,0.0,0.0,93,0.00,,,0.00,weatherlink.com 1.10,2013-02-18 01:56:00,
2013-02-17 19:12:00,29.3,28.0,30.01,NW,324,0.0,0.0,93,0.00,,,0.00,weatherlink.com 1.10,2013-02-18 02:12:00,
2013-02-17 19:26:00,29.1,27.0,30.02,NW,319,0.0,0.0,93,0.00,,,0.00,weatherlink.com 1.10,2013-02-18 02:26:00,
2013-02-17 19:41:00,29.0,27.0,30.02,NW,319,0.0,0.0,93,0.00,,,0.00,weatherlink.com 1.10,2013-02-18 02:41:00,
2013-02-17 19:56:00,29.1,28.0,30.02,NW,319,0.0,0.0,94,0.00,,,0.00,weatherlink.com 1.10,2013-02-18 02:56:00,
2013-02-17 20:11:00,29.1,28.0,30.03,NW,318,0.0,0.0,94,0.00,,,0.00,weatherlink.com 1.10,2013-02-18 03:11:00,
2013-02-17 20:26:00,29.2,28.0,30.03,NW,318,0.0,0.0,94,0.00,,,0.00,weatherlink.com 1.10,2013-02-18 03:26:00,
2013-02-17 20:41:00,29.1,28.0,30.04,NW,313,0.0,0.0,94,0.00,,,0.00,weatherlink.com 1.10,2013-02-18 03:41:00,
2013-02-17 20:56:00,29.1,28.0,30.04,WNW,300,0.0,0.0,94,0.00,,,0.00,weatherlink.com 1.10,2013-02-18 03:56:00,
2013-02-17 21:11:00,29.0,28.0,30.05,NW,319,0.0,0.0,94,0.00,,,0.00,weatherlink.com 1.10,2013-02-18 04:11:00,
2013-02-17 21:26:00,28.9,27.0,30.05,NW,312,0.0,0.0,94,0.00,,,0.00,weatherlink.com 1.10,2013-02-18 04:26:00,
2013-02-17 21:41:00,28.7,27.0,30.06,NW,304,0.0,0.0,94,0.00,,,0.00,weatherlink.com 1.10,2013-02-18 04:41:00,
2013-02-17 21:56:00,28.5,27.0,30.06,NNW,327,0.0,0.0,94,0.00,,,0.00,weatherlink.com 1.10,2013-02-18 04:56:00,
2013-02-17 22:11:00,28.4,27.0,30.07,NW,311,0.0,0.0,94,0.00,,,0.00,weatherlink.com 1.10,2013-02-18 05:11:00,
2013-02-17 22:26:00,28.1,27.0,30.08,NNW,329,0.0,0.0,94,0.00,,,0.00,weatherlink.com 1.10,2013-02-18 05:26:00,
2013-02-17 22:41:00,27.8,26.0,30.09,NW,306,5.0,6.0,94,0.00,,,0.00,weatherlink.com 1.10,2013-02-18 05:41:00,
2013-02-17 22:56:00,27.0,25.0,30.10,NW,315,12.0,12.0,93,0.00,,,0.00,weatherlink.com 1.10,2013-02-18 05:56:00,
2013-02-17 23:11:00,26.1,24.0,30.10,NW,315,12.0,13.0,92,0.00,,,0.00,weatherlink.com 1.10,2013-02-18 06:11:00,
2013-02-17 23:27:00,25.5,24.0,30.11,NW,313,11.0,14.0,93,0.00,,,0.00,weatherlink.com 1.10,2013-02-18 06:27:00,
2013-02-17 23:42:00,25.5,24.0,30.11,NW,310,11.0,13.0,93,0.00,,,0.00,weatherlink.com 1.10,2013-02-18 06:42:00,
2013-02-17 23:57:00,25.4,23.0,30.12,NW,306,6.0,11.0,92,0.00,,,0.00,weatherlink.com 1.10,2013-02-18 06:57:00,